Big Rapids, MI

3:28 PM EDT on September 22, 2019 (GMT -0400)
Roben-Hood

Weather History for KRQB - July, 2019

Change the Weather History Date:

Thursday, July 25, 2019

  Actual Average Record
Temperature  
Mean Temperature 68 °F -  
Max Temperature 83 °F 82 °F 93 °F (1987)
Min Temperature 54 °F 57 °F 42 °F (2004)
Cooling Degree Days 4    
Growing Degree Days 18 (Base 50)    
Moisture  
Dew Point 58 °F    
Average Humidity 71    
Maximum Humidity 96    
Minimum Humidity 46    
Precipitation  
Precipitation 0.00 in - - ()
Sea Level Pressure  
Sea Level Pressure 30.17 in    
Wind  
Wind Speed 3 mph (WSW)    
Max Wind Speed 12 mph    
Max Gust Speed 16 mph    
Visibility 10 miles    
Events      
Averages and records for this station are not official NWS values.
T = Trace of Precipitation, MM = Missing Value Source: NWS Daily Summary

Daily Weather History Graph

Daily Weather History Graph

Search for Another Location

Airport or City:

Astronomy

Jul. 25, 2019 Rise Set
Actual Time 6:23 AM EDT 9:13 PM EDT
Civil Twilight 5:49 AM EDT 9:46 PM EDT
Nautical Twilight 5:07 AM EDT 10:28 PM EDT
Astronomical Twilight 4:17 AM EDT 11:18 PM EDT
Moon 1:14 AM EDT (7/25) 2:49 PM EDT (7/25)
Length of Visible Light 15h 56m
Length of Day
14h 49m
Last Quarter, 44% of the Moon is Illuminated
Jul 25
Last Quarter
Jul 31
New
Aug 7
First Quarter
Aug 15
Full
Aug 23
Last Quarter

Hourly Weather History & Observations

Time (EDT) Temp. Heat Index Dew Point Humidity Pressure Visibility Wind Dir Wind Speed Gust Speed Precip Events Conditions
12:15 AM 61.2 °F - 56.5 °F 85% 30.14 in 10.0 mi Calm Calm - N/A   Clear
12:16 AM 61.2 °F - 56.3 °F 84% 30.14 in 10.0 mi Calm Calm - N/A   Clear
12:35 AM 60.3 °F - 56.1 °F 86% 30.14 in 10.0 mi Calm Calm - N/A   Clear
12:36 AM 60.3 °F - 56.1 °F 86% 30.14 in 10.0 mi Calm Calm - N/A   Clear
12:59 AM 59.7 °F - 56.1 °F 88% 30.14 in 10.0 mi Calm Calm - N/A   Clear
1:17 AM 59.0 °F - 55.4 °F 88% 30.14 in 10.0 mi Calm Calm - N/A   Clear
1:35 AM 59.2 °F - 55.6 °F 88% 30.14 in 10.0 mi Calm Calm - N/A   Clear
1:55 AM 57.4 °F - 54.7 °F 91% 30.14 in 10.0 mi Calm Calm - N/A   Clear
1:56 AM 57.4 °F - 54.7 °F 91% 30.14 in 10.0 mi Calm Calm - N/A   Clear
2:15 AM 57.4 °F - 55.2 °F 92% 30.14 in 10.0 mi Calm Calm - N/A   Clear
2:38 AM 57.4 °F - 54.5 °F 90% 30.14 in 10.0 mi Calm Calm - N/A   Clear
2:56 AM 56.8 °F - 54.1 °F 91% 30.14 in 10.0 mi Calm Calm - N/A   Clear
3:15 AM 56.3 °F - 54.3 °F 93% 30.14 in 10.0 mi Calm Calm - N/A   Clear
3:38 AM 55.9 °F - 54.0 °F 93% 30.14 in 10.0 mi Calm Calm - N/A   Clear
3:56 AM 55.6 °F - 53.8 °F 94% 30.14 in 10.0 mi Calm Calm - N/A   Clear
4:15 AM 55.8 °F - 53.6 °F 92% 30.14 in 10.0 mi Calm Calm - N/A   Clear
4:35 AM 55.6 °F - 53.6 °F 93% 30.15 in 10.0 mi Calm Calm - N/A   Clear
4:36 AM 55.6 °F - 53.4 °F 92% 30.15 in 10.0 mi Calm Calm - N/A   Clear
4:59 AM 54.9 °F - 53.4 °F 95% 30.14 in 10.0 mi Calm Calm - N/A   Clear
5:17 AM 54.9 °F - 53.2 °F 94% 30.15 in 10.0 mi Calm Calm - N/A   Clear
5:35 AM 54.5 °F - 53.4 °F 96% 30.16 in 10.0 mi Calm Calm - N/A   Clear
5:55 AM 54.5 °F - 53.1 °F 95% 30.16 in 10.0 mi Calm Calm - N/A   Clear
5:56 AM 54.5 °F - 52.9 °F 94% 30.16 in 10.0 mi Calm Calm - N/A   Clear
6:15 AM 54.3 °F - 52.9 °F 95% 30.16 in 10.0 mi Calm Calm - N/A   Clear
6:20 AM 54.3 °F - 52.9 °F 95% 30.16 in 10.0 mi Calm Calm - N/A   Clear
6:38 AM 54.1 °F - 52.7 °F 95% 30.17 in 10.0 mi Calm Calm - N/A   Clear
6:56 AM 54.7 °F - 53.6 °F 96% 30.17 in 10.0 mi Calm Calm - N/A   Clear
7:15 AM 55.8 °F - 54.1 °F 94% 30.18 in 10.0 mi Calm Calm - N/A   Clear
7:16 AM 55.8 °F - 54.1 °F 94% 30.18 in 10.0 mi Calm Calm - N/A   Clear
7:35 AM 56.1 °F - 54.7 °F 95% 30.18 in 10.0 mi Calm Calm - N/A   Clear
7:59 AM 57.7 °F - 56.1 °F 94% 30.19 in 10.0 mi Calm Calm - N/A   Clear
8:16 AM 58.6 °F - 56.5 °F 93% 30.19 in 10.0 mi ESE 3.5 mph - N/A   Clear
8:35 AM 60.3 °F - 57.6 °F 91% 30.19 in 10.0 mi Calm Calm - N/A   Clear
8:36 AM 60.4 °F - 57.7 °F 91% 30.19 in 10.0 mi Calm Calm - N/A   Clear
8:55 AM 63.1 °F - 59.5 °F 88% 30.20 in 10.0 mi Calm Calm - N/A   Clear
9:19 AM 69.8 °F - 56.7 °F 63% 30.20 in 10.0 mi WSW 6.9 mph - N/A   Clear
9:36 AM 71.1 °F - 55.4 °F 58% 30.19 in 10.0 mi West 9.2 mph - N/A   Clear
9:55 AM 72.0 °F - 55.8 °F 57% 30.19 in 10.0 mi West 9.2 mph - N/A   Clear
9:56 AM 72.1 °F - 55.6 °F 56% 30.20 in 10.0 mi West 10.4 mph - N/A   Clear
10:15 AM 72.9 °F - 57.0 °F 57% 30.20 in 10.0 mi WSW 11.5 mph - N/A   Clear
10:16 AM 73.0 °F - 57.2 °F 57% 30.20 in 10.0 mi WSW 11.5 mph - N/A   Clear
10:39 AM 74.1 °F - 58.3 °F 58% 30.19 in 10.0 mi WSW 8.1 mph - N/A   Clear
10:57 AM 75.2 °F - 59.4 °F 58% 30.19 in 10.0 mi WSW 9.2 mph - N/A   Clear
11:15 AM 76.1 °F - 59.7 °F 57% 30.20 in 10.0 mi WSW 6.9 mph - N/A   Clear
11:16 AM 76.1 °F - 59.9 °F 57% 30.20 in 10.0 mi WSW 6.9 mph - N/A   Clear
11:35 AM 77.0 °F - 60.3 °F 56% 30.20 in 10.0 mi WSW 6.9 mph - N/A   Clear
11:59 AM 78.4 °F - 61.2 °F 55% 30.19 in 10.0 mi WSW 4.6 mph - N/A   Clear
12:17 PM 78.6 °F - 62.1 °F 57% 30.19 in 10.0 mi West 5.8 mph - N/A   Clear
12:35 PM 78.8 °F - 61.3 °F 55% 30.19 in 10.0 mi SW 5.8 mph - N/A   Clear
12:36 PM 78.8 °F - 61.5 °F 55% 30.19 in 10.0 mi WSW 5.8 mph - N/A   Clear
12:55 PM 80.4 °F 81.6 °F 62.4 °F 54% 30.19 in 10.0 mi SW 6.9 mph - N/A   Clear
1:00 PM 79.9 °F - 61.9 °F 54% 30.19 in 10.0 mi WSW 5.8 mph - N/A   Clear
1:18 PM 80.6 °F 81.7 °F 61.9 °F 53% 30.19 in 10.0 mi WNW 5.8 mph - N/A   Clear
1:36 PM 81.1 °F 82.1 °F 61.9 °F 52% 30.18 in 10.0 mi SW 4.6 mph - N/A   Scattered Clouds
1:55 PM 82.0 °F 83.0 °F 62.2 °F 51% 30.18 in 10.0 mi West 9.2 mph - N/A   Mostly Cloudy
1:56 PM 81.9 °F 82.8 °F 62.1 °F 51% 30.18 in 10.0 mi West 8.1 mph - N/A   Mostly Cloudy
2:15 PM 81.5 °F 82.2 °F 61.3 °F 50% 30.17 in 10.0 mi West 11.5 mph - N/A   Mostly Cloudy
2:38 PM 82.6 °F 83.1 °F 61.0 °F 48% 30.17 in 10.0 mi WNW 6.9 mph - N/A   Scattered Clouds
2:56 PM 83.3 °F 83.9 °F 61.5 °F 48% 30.17 in 10.0 mi West 8.1 mph - N/A   Scattered Clouds
3:15 PM 81.5 °F 82.2 °F 61.2 °F 50% 30.17 in 10.0 mi West 6.9 mph - N/A   Mostly Cloudy
3:16 PM 81.7 °F 82.4 °F 61.2 °F 50% 30.17 in 10.0 mi West 9.2 mph - N/A   Mostly Cloudy
3:35 PM 83.7 °F 83.9 °F 60.6 °F 46% 30.17 in 10.0 mi WSW 9.2 mph - N/A   Scattered Clouds
3:36 PM 83.5 °F 83.7 °F 60.4 °F 46% 30.17 in 10.0 mi WSW 5.8 mph - N/A   Scattered Clouds
4:18 PM 82.9 °F 83.3 °F 60.8 °F 47% 30.17 in 10.0 mi West 9.2 mph - N/A   Clear
4:36 PM 82.6 °F 82.8 °F 60.1 °F 46% 30.16 in 10.0 mi WSW 8.1 mph 16.1 mph N/A   Clear
4:55 PM 82.4 °F 82.9 °F 61.0 °F 48% 30.16 in 10.0 mi WSW 6.9 mph - N/A   Clear
4:56 PM 82.4 °F 82.9 °F 61.0 °F 48% 30.16 in 10.0 mi WSW 6.9 mph - N/A   Clear
5:15 PM 81.9 °F 82.2 °F 59.5 °F 47% 30.16 in 10.0 mi WSW 8.1 mph - N/A   Clear
5:39 PM 81.9 °F 82.1 °F 59.0 °F 46% 30.16 in 10.0 mi WSW 8.1 mph - N/A   Clear
5:57 PM 81.5 °F 81.8 °F 59.7 °F 47% 30.15 in 10.0 mi West 8.1 mph - N/A   Clear
6:15 PM 80.8 °F 81.6 °F 61.0 °F 51% 30.15 in 10.0 mi WSW 5.8 mph - N/A   Clear
6:16 PM 80.8 °F 81.6 °F 61.3 °F 51% 30.15 in 10.0 mi WSW 8.1 mph - N/A   Clear
6:35 PM 80.4 °F 81.2 °F 60.3 °F 50% 30.15 in 10.0 mi West 10.4 mph - N/A   Clear
6:55 PM 79.2 °F - 59.9 °F 52% 30.15 in 10.0 mi West 9.2 mph - N/A   Clear
7:00 PM 79.3 °F - 60.1 °F 52% 30.15 in 10.0 mi West 8.1 mph - N/A   Clear
7:18 PM 78.6 °F - 60.6 °F 54% 30.16 in 10.0 mi WSW 8.1 mph - N/A   Clear
7:36 PM 78.4 °F - 60.8 °F 55% 30.16 in 10.0 mi West 8.1 mph - N/A   Clear
7:55 PM 76.8 °F - 61.7 °F 59% 30.16 in 10.0 mi SW 6.9 mph - N/A   Clear
7:56 PM 76.6 °F - 61.5 °F 59% 30.16 in 10.0 mi SW 6.9 mph - N/A   Clear
8:15 PM 75.4 °F - 62.6 °F 64% 30.16 in 10.0 mi WSW 3.5 mph - N/A   Clear
8:39 PM 73.9 °F - 60.8 °F 63% 30.16 in 10.0 mi SW 5.8 mph - N/A   Clear
8:57 PM 72.5 °F - 60.3 °F 65% 30.16 in 10.0 mi SW 4.6 mph - N/A   Clear
9:15 PM 70.9 °F - 60.1 °F 69% 30.17 in 10.0 mi SW 3.5 mph - N/A   Clear
9:16 PM 70.9 °F - 60.3 °F 69% 30.17 in 10.0 mi SW 4.6 mph - N/A   Clear
9:35 PM 67.8 °F - 61.5 °F 80% 30.17 in 10.0 mi SSW 6.9 mph - N/A   Clear
9:36 PM 67.8 °F - 61.5 °F 80% 30.17 in 10.0 mi SW 4.6 mph - N/A   Clear
9:55 PM 66.6 °F - 61.0 °F 82% 30.18 in 10.0 mi SW 3.5 mph - N/A   Clear
10:00 PM 66.7 °F - 61.0 °F 82% 30.18 in 10.0 mi Calm Calm - N/A   Clear
10:18 PM 65.3 °F - 60.8 °F 85% 30.19 in 10.0 mi Calm Calm - N/A   Clear
10:35 PM 65.3 °F - 60.4 °F 84% 30.19 in 10.0 mi Calm Calm - N/A   Clear
10:55 PM 64.4 °F - 60.1 °F 86% 30.19 in 10.0 mi Calm Calm - N/A   Clear
11:15 PM 63.7 °F - 59.4 °F 86% 30.20 in 10.0 mi Calm Calm - N/A   Clear
11:20 PM 63.9 °F - 59.7 °F 86% 30.20 in 10.0 mi Calm Calm - N/A   Clear
11:38 PM 63.0 °F - 59.4 °F 88% 30.20 in 10.0 mi Calm Calm - N/A   Clear
11:56 PM 63.0 °F - 58.8 °F 86% 30.20 in 10.0 mi Calm Calm - N/A   Clear